STARLINK-1401, 45684

Orbit data source: Space-Track

STARLINK-1401, 45684 is a payload satellite owned by SpaceX/Seattle (US) in LEO that was launched on Thu, 04 Jun 2020 UTC via an FALCON 9 launch vehicle from the Air Force Eastern Test Range (AFETR). Payloads include a variety of satellites, spacecraft, and rockets equipped with specific instruments for various scientific and technological missions. These include communications satellites like Starlink; space stations such as the ISS; scientific satellites like the Hubble; Earth observation satellites from companies like Planet Labs, Umbra, and HawkEye 360; GPS; miniature CubeSats for education and research; and military/defense satellites.

Loading next visibility...
STARLINK-1401 details
Identifier
45684, 2020-035AD
Orbit
LEO
Last TLE update18 hours ago
Origin
Flag of USSpaceX/Seattle (US)
ManufacturerSpaceX/Seattle
MissionPartially operational Commercial Communications
Bus & MotorSTARLINK, Unknown motor
Mass260 kg wet, ~248 kg dry
Launch date (UTC)
2020-06-04 (5 years ago)
Launch vehicle
FALCON 9
Launch site
Air Force Eastern Test Range (AFETR)
Object type
Payload
Rocket body
Debris
Shape & HBRBox + 1 Pan, 8.86 m
Radar Cross Section13.562 m², Large (>1 m²)

Expand to show TLE details & history

TLE from 18 hours ago
0 STARLINK-1401
1 45684U 20035AD  24360.66667824  .00267314  00000-0  14425-2 0  9998
2 45684  53.0361 130.5219 0002634 299.2208 234.3690 15.78857913253679
Epoch: 2024-12-25T16:00Z
Definitive object data (Epoch: 2024-12-25T16:00:00.999Z)
Latitude5.08838°
Longitude-27.96006°
Altitude335.093 km
Speed7.709 km/s
True Right ascension20h 26m 48s
True Declination5° 03' 22"
Sunlit
Object was in daylight at TLE epoch
Visualization TLE readout
Latitude17.03361°
Longitude-41.18842°
Altitude334.199 km
Speed7.71 km/s
Apparent Right ascension20h 24m 24s
Apparent Declination-10° 55' 57"
Sunlit
Object is in daylight
Visualization observer readout
Local Sidereal Time09:31:01
Azimuth31.556° NE
Elevation-57.477°
Doppler factor1
Orbital elements
Apogee altitude335.725 km
Perigee altitude332.19 km
Semi-major axis6,712.095 km
Eccentricity0.0002634
Inclination53.0361°
RAAN130.5219°
Arg. of periapsis299.2208°
True anomaly234.34447°
Mean anomaly234.369°
Eccentric anomaly234.35674°
Mean motion3.9469 °/min
BSTAR0.0014425
Orbital period91.21 mins
Loading maneuver chart data...

STARLINK-1401 Visibility forecast

Observer location: undefined°, undefined

Span
Click to sort rows by Start time (UTC) header in descending order
Start Az.
Max El. time (UTC)
Max El. Az.
Max El.
End time (UTC)
End Az.
5 mins2024-12-26 11:10:53.171Z205.98° SW2024-12-26 11:13:53.171Z107.391° ESE30.131°2024-12-26 11:15:53.171Z65.247° ENE
|